Temperature
17 17 16 16 16 16 16 16 16 16 16 16 16 16 16 16 16 16 15 15 15 15 15 15 15 15 15 15 15 15 15 15 15 15 15 15 15 15 15 14 14 14 14
16 16 16 16 16 16 16 16 16 16 16 16 16 16 16 16 15 15 15 15 15 15 15 15 15 15 15 15 15 15 15 15 15 15 15 14 14 14 14 14 14 14 14
16 16 16 16 16 16 16 16 16 16 16 16 16 16 16 15 15 15 15 15 15 15 15 15 15 15 15 15 15 15 15 15 15 14 14 14 14 14 14 14 14 14 14
16 16 16 16 16 16 16 16 16 15 15 15 15 15 15 15 15 15 15 15 15 15 15 14 14 14 14 14 14 14 14 14 14 14 14 14 14 14 14 14 14 14 14
16 16 16 16 16 16 16 15 15 15 15 15 15 15 15 15 15 15 15 14 14 14 14 14 14 14 14 14 14 14 14 14 14 14 14 14 14 14 14 14 14 13 13
16 15 15 15 15 15 15 15 15 15 15 15 15 15 15 15 15 15 14 14 14 14 14 14 14 14 14 14 14 14 14 14 14 14 14 14 14 14 14 13 13 13 13
15 15 15 15 15 15 15 15 15 15 15 15 15 15 15 14 14 14 14 14 14 14 14 14 14 14 14 13 13 13 13 13 14 14 14 14 14 13 13 13 13 13 13
15 15 15 15 15 15 15 15 15 15 15 15 15 15 14 14 14 14 14 14 14 14 13 13 13 13 13 13 13 13 13 13 13 13 13 13 13 13 13 13 13 13 13
15 15 15 15 14 14 14 15 15 15 14 14 15 14 14 14 14 14 14 14 14 14 13 13 13 13 13 13 13 13 13 13 13 13 13 13 13 13 13 13 13 13 13
14 14 14 14 14 14 14 14 14 14 14 14 14 14 14 14 14 13 14 14 14 13 13 13 13 13 13 13 13 13 13 13 12 12 12 12 12 12 13 12 12 12 12
14 14 14 14 14 14 14 14 14 14 14 14 14 14 14 14 14 14 13 13 13 13 13 13 13 13 12 12 12 12 12 12 12 12 12 12 12 12 12 12 12 12 12
13 13 13 13 13 13 13 13 13 13 13 13 13 13 13 13 13 13 13 13 13 13 13 13 12 12 12 12 12 12 12 12 12 12 12 12 12 12 12 12 12 12 12
13 13 13 13 13 13 13 13 13 13 13 13 13 13 13 13 13 13 13 13 13 12 12 12 12 12 12 12 12 12 12 12 12 12 12 12 12 12 12 12 12 12 12
13 13 13 13 13 13 13 13 13 12 12 12 12 12 12 12 12 12 13 12 12 12 12 12 12 12 12 11 11 12 11 11 11 11 12 12 12 12 12 12 12 12 12
12 12 12 12 12 12 12 12 12 12 12 12 12 12 12 12 12 12 12 12 12 11 11 11 11 11 11 11 11 11 11 11 11 11 11 11 11 11 11 11 11 12 12
12 12 12 12 12 12 12 12 12 12 11 11 11 11 11 11 11 11 11 11 12 11 11 11 11 11 11 11 11 11 11 11 11 11 11 11 11 11 11 11 11 11 11
12 12 11 11 11 11 11 11 11 11 11 11 11 11 11 11 11 11 11 11 11 11 11 11 11 11 10 11 11 10 11 11 11 11 11 11 11 11 11 11 11 11 11
11 11 11 11 11 11 11 10 10 10 10 10 10 10 10 10 10 10 10 10 11 11 11 10 10 10 10 10 10 10 10 10 10 10 10 10 10 10 10 10 10 11 11
11 11 11 11 10 10 10 10 10 10 10 10 10 10 10 10 10 10 10 10 10 10 10 10 10 10 10 10 10 10 9 9 10 10 10 10 10 10 10 10 10 10 10
10 10 10 10 10 10 10 10 9 9 9 9 9 9 9 9 9 9 9 10 10 10 10 10 9 9 9 9 9 9 9 9 9 9 9 9 9 9 10 10 10 10 10
10 10 10 9 9 9 9 9 9 9 9 9 9 9 9 9 9 9 9 9 9 9 9 9 9 9 9 9 9 8 8 9 9 9 9 9 9 9 9 9 9 9 9
9 9 9 9 9 9 9 9 9 8 8 8 8 8 8 8 8 8 9 9 9 9 9 9 9 8 8 8 8 8 8 8 8 8 8 9 9 9 9 9 9 9 9
9 9 9 8 8 9 8 8 8 8 8 8 8 8 8 8 8 8 8 8 8 8 8 8 8 8 8 8 8 8 8 8 8 8 8 8 8 8 8 8 8 9 9
8 8 8 8 8 8 8 8 8 8 7 7 7 7 7 7 7 7 8 8 8 8 8 8 8 8 8 8 8 8 7 7 7 8 7 7 8 8 8 8 8 8 8
8 8 8 8 8 7 7 7 7 7 7 7 7 7 7 7 7 7 7 7 7 7 7 7 8 8 7 7 7 7 7 7 7 7 7 7 7 7 7 8 8 8 8
7 7 7 7 7 7 7 7 7 7 6 6 6 6 6 6 6 6 6 7 7 7 7 7 7 7 7 7 7 7 7 6 6 6 6 6 6 6 6 7 7 7 7
Wind_Speed
3 3 3 3 3 2 2 1 3 4 4 5 6 7 6 7 9 9 9 10 11 11 11 10 10 10 10 10 9 9 10 10 9 9 9 8 8 8 8 8 7 7 6
4 3 3 3 3 3 3 3 3 3 3 4 5 5 5 7 8 9 9 9 10 10 10 9 9 9 9 9 9 9 9 9 9 8 8 8 8 8 8 7 6 6 6
5 4 3 3 3 4 4 4 4 4 3 4 4 4 5 6 6 7 7 7 8 8 9 8 8 8 8 8 8 8 8 8 8 8 8 8 8 8 7 7 6 6 6
7 5 3 3 4 4 3 3 3 3 3 3 3 3 4 4 5 5 5 6 7 6 7 7 7 7 7 7 7 7 7 7 7 7 7 7 7 7 7 7 6 6 6
7 5 3 3 4 4 3 3 3 3 3 2 2 2 3 3 2 3 4 5 7 8 6 6 6 7 7 7 7 7 6 6 6 6 6 6 6 6 6 6 6 6 6
7 5 3 4 5 3 3 3 3 3 2 1 2 3 2 2 2 3 3 4 5 7 6 7 6 5 6 7 7 6 6 6 6 6 6 6 6 6 6 6 6 6 6
6 5 4 4 4 3 3 3 2 3 2 2 2 2 2 2 2 2 2 3 3 5 6 6 6 6 5 6 6 6 6 6 7 6 6 6 6 6 6 6 6 6 6
6 5 3 3 3 2 3 3 3 2 1 1 1 1 1 2 2 2 2 2 2 3 3 4 6 6 6 6 6 6 5 5 6 6 6 6 6 6 5 6 6 6 6
6 5 4 3 2 2 2 2 2 2 1 1 1 1 1 1 0 1 1 1 2 1 2 3 5 6 6 6 6 5 6 5 5 5 5 5 6 6 6 5 5 6 6
5 5 5 4 3 2 2 2 2 1 1 1 2 1 1 1 1 0 1 0 1 1 1 2 3 5 6 6 7 6 6 5 5 5 5 5 6 6 6 6 5 5 5
4 5 5 4 3 3 2 2 2 2 1 1 0 1 1 1 1 1 1 0 1 0 1 1 3 4 5 6 6 6 6 5 5 4 5 5 5 6 6 5 5 5 5
2 3 4 3 3 3 3 2 2 2 2 2 2 1 1 1 1 0 0 1 1 1 0 1 2 3 5 6 5 6 6 4 4 3 4 5 5 5 5 5 5 5 5
1 1 2 2 2 2 3 3 2 2 2 2 2 2 1 1 1 1 1 0 0 0 1 1 1 3 5 6 6 5 4 4 3 3 3 4 4 5 5 5 5 5 5
0 1 1 1 2 2 3 3 2 2 2 2 2 2 2 2 1 1 1 1 1 1 1 0 1 3 4 5 5 4 4 4 3 2 2 2 3 4 4 5 5 5 5
1 1 1 1 2 2 2 2 2 3 2 2 1 1 1 2 2 1 1 1 1 0 1 0 1 1 3 4 4 4 4 4 2 2 2 2 3 3 4 4 5 5 5
1 1 2 2 2 2 2 2 2 2 2 2 1 2 2 1 2 1 1 1 1 1 1 0 1 1 1 2 3 3 3 2 2 1 2 2 2 3 4 5 5 5 5
1 1 1 2 3 2 2 2 2 2 2 2 2 2 3 2 2 2 1 1 1 1 0 1 1 1 2 1 1 1 2 3 2 2 1 1 1 2 3 4 4 4 5
1 1 2 2 2 2 2 2 2 2 1 2 2 2 2 2 2 2 1 1 1 0 1 0 1 1 1 0 0 0 1 1 2 2 2 1 0 1 2 3 3 3 4
1 2 2 2 2 2 2 1 1 1 1 1 2 2 1 2 2 2 2 1 1 1 0 1 1 0 0 0 0 1 1 1 0 1 1 1 1 2 2 2 2 3 3
1 1 1 2 2 2 2 2 2 2 1 1 2 2 2 2 2 3 2 1 1 1 1 0 0 0 0 0 1 0 1 1 1 1 1 2 2 3 3 3 3 3 3
0 1 1 1 1 1 2 2 2 2 2 1 1 2 2 3 3 3 2 2 1 0 1 0 0 0 0 0 0 1 1 1 1 1 1 1 1 2 2 4 4 3 2
1 1 1 1 1 2 3 5 4 2 1 1 1 1 1 3 4 4 5 3 1 0 1 1 1 1 1 1 1 0 0 1 2 1 1 2 1 1 1 2 3 3 3
1 1 1 1 1 1 2 4 4 2 1 0 1 1 2 3 4 3 3 4 2 1 1 2 2 2 2 2 2 1 1 1 2 2 0 2 1 2 2 3 3 3 3
1 1 1 1 1 1 2 3 4 2 1 1 0 1 1 2 3 3 3 3 3 2 3 2 3 4 3 2 3 3 3 2 1 1 1 1 2 2 2 3 3 3 3
1 1 1 1 1 1 2 2 3 1 1 2 1 1 1 1 4 5 3 3 3 3 3 3 3 2 2 2 2 1 1 1 1 2 1 0 1 2 2 1 2 3 3
0 1 1 1 1 1 2 3 3 1 1 1 1 2 2 3 4 6 3 3 3 3 2 2 2 2 1 1 1 2 3 2 1 1 1 0 1 1 2 2 1 2 2
Wind_Direction
42 45 69 66 72 77 69 42 38 42 37 51 62 68 76 80 93 97 97 96 93 89 87 84 83 82 80 76 77 81 82 80 79 77 74 73 73 71 72 74 73 74 77
40 40 51 43 46 51 45 59 61 54 46 48 54 55 64 77 89 96 102 97 96 91 85 84 84 81 81 79 78 80 83 81 78 76 75 72 70 73 71 71 72 71 71
48 38 42 39 34 48 51 51 58 56 59 56 52 55 56 59 76 90 102 105 102 94 87 84 84 79 80 82 80 80 80 77 74 71 70 71 70 69 65 63 65 67 70
49 44 38 36 42 45 47 53 64 62 58 61 57 60 68 62 62 78 94 108 110 102 96 89 85 79 78 79 78 77 74 71 71 70 68 70 69 64 62 60 57 63 69
44 45 31 35 45 37 34 45 49 60 61 56 72 80 78 76 55 64 73 84 101 105 106 101 91 84 80 78 77 75 72 71 70 73 69 65 63 61 61 58 56 60 61
39 43 34 34 39 39 40 46 52 50 59 48 65 75 80 93 73 61 61 71 87 102 106 106 103 89 80 80 77 73 71 68 65 68 69 63 61 59 62 59 55 54 55
26 43 43 32 33 36 38 47 51 58 44 47 72 60 48 73 88 87 71 64 71 87 98 105 111 102 90 80 73 73 70 68 64 63 65 61 60 61 60 56 53 50 48
22 36 45 38 33 34 32 42 44 36 16 38 72 89 55 12 11 74 87 93 78 71 84 100 100 100 100 93 82 76 72 72 65 64 61 60 62 61 61 62 57 51 45
25 25 25 40 39 38 35 39 51 44 8 358 49 92 112 186 285 329 84 102 97 69 54 79 98 102 104 102 93 82 75 76 70 63 61 58 57 57 57 52 50 47 41
24 23 24 26 34 32 31 22 42 26 41 334 332 359 95 125 141 246 315 42 113 112 100 67 84 100 101 103 101 96 88 75 68 61 59 55 51 50 49 47 43 39 32
17 20 25 29 21 20 24 39 26 12 25 5 344 341 360 13 36 129 223 325 1 2 103 97 86 98 114 114 111 109 101 84 71 59 56 50 43 40 39 40 34 26 18
3 17 24 31 24 13 11 28 30 18 14 3 0 8 18 36 353 94 187 181 195 273 49 83 97 102 111 116 112 112 109 95 81 71 57 47 34 28 25 22 20 16 11
8 337 13 35 27 20 20 22 20 27 23 16 13 2 351 350 49 74 88 180 181 272 60 1 77 102 106 109 111 117 118 113 101 91 67 46 27 19 17 13 12 8 6
357 342 28 26 31 35 33 27 10 15 34 36 23 22 7 350 9 42 99 103 32 13 46 325 28 72 89 106 107 109 114 123 117 103 79 52 24 14 14 11 9 8 3
32 23 26 49 42 33 49 39 12 10 9 23 11 18 16 346 352 6 52 96 117 127 261 313 53 37 82 105 124 115 116 118 111 95 68 39 15 10 7 5 8 8 2
60 23 10 29 46 38 43 55 17 5 17 16 9 24 22 2 350 359 30 38 68 117 226 307 0 343 61 102 124 117 122 136 132 116 85 58 33 16 8 5 6 4 3
70 64 38 45 47 39 42 41 22 21 37 15 13 22 10 7 7 355 16 29 27 71 122 305 18 41 50 71 68 85 124 141 148 169 152 119 39 8 359 1 3 2 4
38 50 46 44 44 39 48 43 3 358 34 31 23 25 4 5 8 357 12 14 348 29 147 204 313 35 52 117 97 17 117 130 150 184 185 194 287 348 342 349 355 354 356
38 41 37 42 37 26 25 22 13 351 24 43 42 38 15 16 7 356 350 7 346 349 89 154 242 242 71 128 113 319 21 68 65 134 200 232 266 307 318 318 317 317 326
74 64 42 42 32 20 21 15 3 351 3 25 38 28 31 47 20 359 351 1 25 6 350 92 79 53 136 21 76 319 342 356 349 352 292 277 260 265 296 314 291 287 297
35 76 73 34 29 22 12 14 5 354 3 4 28 34 44 54 33 14 358 350 11 2 352 5 166 16 49 91 264 282 310 311 300 352 321 289 259 248 265 284 277 271 274
46 54 57 58 50 18 14 13 3 334 340 30 42 38 42 54 45 25 13 5 3 341 230 230 246 238 228 205 217 279 345 10 305 315 359 305 331 291 241 248 273 259 261
83 86 68 77 72 47 33 18 1 342 328 327 28 18 7 31 28 3 349 347 333 326 256 221 220 236 227 200 178 214 229 228 260 261 352 283 284 286 262 265 257 241 250
92 108 103 96 87 29 16 20 6 357 347 355 3 61 48 20 3 4 353 345 317 282 255 233 217 226 232 213 194 207 222 239 271 307 53 268 282 288 292 240 259 249 259
82 88 99 103 95 16 358 10 19 11 24 358 354 34 59 23 3 5 357 335 318 299 274 246 245 249 256 254 211 156 187 172 299 284 261 185 279 309 299 259 266 281 282
98 95 103 115 105 66 13 13 18 25 33 356 1 24 25 3 0 0 340 319 300 291 303 305 290 288 266 275 217 174 187 187 239 276 261 145 289 346 317 296 302 273 279
Height
1529 1529 1529 1529 1528 1528 1528 1528 1528 1528 1528 1528 1528 1528 1527 1527 1526 1526 1526 1526 1525 1525 1525 1524 1524 1524 1524 1524 1524 1524 1524 1524 1524 1524 1525 1525 1525 1525 1525 1525 1526 1526 1527
1530 1530 1530 1529 1529 1529 1529 1528 1528 1528 1528 1529 1528 1528 1528 1528 1528 1527 1527 1527 1526 1526 1526 1525 1525 1525 1525 1525 1525 1525 1524 1525 1525 1525 1525 1525 1525 1525 1525 1526 1526 1526 1527
1531 1530 1530 1530 1530 1529 1529 1529 1529 1529 1529 1529 1529 1529 1529 1529 1529 1528 1528 1528 1527 1527 1526 1526 1526 1525 1525 1525 1525 1525 1525 1525 1525 1525 1525 1525 1525 1525 1525 1526 1526 1526 1527
1531 1531 1531 1530 1530 1530 1529 1529 1529 1529 1529 1530 1529 1530 1530 1530 1530 1530 1529 1529 1528 1527 1527 1527 1526 1526 1526 1525 1526 1526 1526 1525 1525 1525 1525 1525 1526 1525 1525 1525 1526 1526 1526
1532 1531 1531 1531 1530 1530 1530 1529 1529 1529 1530 1530 1530 1530 1530 1530 1530 1531 1530 1530 1529 1528 1527 1527 1527 1526 1526 1526 1526 1526 1526 1526 1526 1526 1526 1526 1526 1525 1525 1525 1525 1526 1526
1532 1531 1531 1531 1531 1530 1530 1529 1529 1529 1530 1530 1530 1530 1531 1531 1531 1531 1531 1531 1530 1529 1528 1527 1527 1526 1526 1526 1526 1526 1526 1526 1526 1525 1525 1526 1525 1525 1525 1525 1525 1525 1526
1532 1531 1531 1531 1531 1530 1530 1530 1529 1529 1530 1530 1530 1530 1531 1531 1531 1531 1531 1531 1530 1530 1528 1528 1527 1527 1527 1526 1526 1526 1526 1526 1526 1525 1525 1526 1525 1525 1525 1525 1525 1525 1525
1531 1531 1531 1530 1530 1530 1530 1530 1529 1529 1529 1530 1530 1530 1530 1532 1531 1531 1531 1531 1530 1530 1529 1528 1527 1527 1527 1526 1526 1526 1526 1526 1526 1526 1526 1526 1525 1525 1525 1525 1525 1525 1525
1531 1530 1530 1530 1530 1530 1529 1529 1529 1529 1528 1529 1529 1530 1530 1530 1531 1531 1531 1531 1530 1529 1529 1528 1528 1527 1527 1526 1526 1526 1526 1526 1526 1526 1525 1525 1525 1525 1524 1524 1524 1524 1524
1530 1530 1529 1529 1529 1529 1528 1528 1528 1528 1528 1528 1528 1528 1529 1529 1530 1530 1531 1530 1530 1529 1529 1529 1528 1527 1527 1526 1526 1526 1526 1526 1525 1525 1525 1525 1525 1524 1524 1524 1524 1523 1523
1529 1529 1528 1528 1528 1527 1527 1527 1527 1527 1527 1527 1527 1527 1527 1527 1528 1528 1528 1529 1529 1529 1528 1528 1528 1527 1527 1526 1526 1526 1526 1525 1525 1525 1525 1524 1524 1524 1523 1523 1523 1522 1522
1527 1527 1527 1527 1527 1526 1526 1526 1526 1525 1525 1525 1525 1526 1526 1526 1526 1526 1527 1527 1527 1528 1527 1527 1527 1527 1526 1526 1525 1525 1525 1525 1524 1524 1524 1523 1523 1523 1522 1522 1522 1521 1521
1526 1526 1526 1526 1526 1525 1525 1525 1524 1524 1524 1524 1524 1524 1524 1525 1525 1525 1525 1525 1526 1526 1526 1526 1526 1526 1525 1525 1525 1524 1524 1524 1524 1523 1523 1523 1522 1522 1521 1520 1520 1520 1519
1525 1525 1525 1525 1525 1524 1524 1523 1523 1523 1523 1523 1523 1523 1522 1523 1523 1523 1524 1524 1524 1525 1525 1525 1525 1524 1524 1523 1523 1523 1523 1523 1522 1522 1522 1522 1521 1520 1520 1519 1519 1518 1518
1524 1524 1523 1523 1523 1522 1522 1522 1522 1521 1521 1521 1521 1521 1521 1521 1521 1522 1522 1523 1523 1522 1523 1523 1523 1523 1522 1522 1522 1522 1521 1521 1521 1521 1520 1520 1519 1519 1518 1518 1517 1516 1516
1522 1522 1521 1521 1521 1521 1520 1520 1520 1520 1519 1519 1519 1519 1519 1519 1519 1520 1520 1520 1521 1521 1520 1521 1521 1521 1520 1520 1520 1520 1520 1520 1519 1519 1519 1518 1518 1517 1516 1516 1515 1515 1514
1520 1520 1520 1520 1519 1519 1519 1518 1517 1517 1517 1517 1517 1517 1517 1517 1517 1518 1518 1519 1519 1519 1518 1518 1519 1519 1518 1518 1518 1518 1517 1517 1517 1517 1517 1516 1516 1516 1515 1514 1514 1513 1513
1518 1518 1518 1518 1517 1517 1516 1516 1515 1515 1515 1515 1515 1515 1515 1515 1515 1515 1516 1516 1516 1517 1517 1516 1516 1516 1516 1516 1516 1516 1515 1515 1516 1515 1515 1515 1514 1514 1513 1513 1512 1511 1511
1515 1515 1515 1515 1515 1515 1514 1514 1513 1513 1513 1513 1513 1513 1513 1513 1512 1513 1513 1514 1514 1514 1514 1514 1514 1514 1514 1514 1514 1514 1514 1514 1514 1514 1513 1512 1512 1512 1511 1511 1510 1510 1509
1512 1512 1513 1513 1513 1512 1512 1512 1511 1511 1511 1511 1511 1511 1511 1510 1510 1510 1510 1511 1511 1511 1512 1512 1512 1512 1512 1512 1512 1512 1511 1512 1512 1511 1511 1511 1510 1510 1509 1509 1508 1508 1507
1510 1510 1510 1510 1510 1510 1509 1509 1509 1509 1508 1508 1508 1508 1508 1508 1508 1508 1508 1508 1509 1509 1509 1509 1509 1509 1509 1509 1509 1510 1509 1509 1509 1509 1509 1509 1508 1507 1507 1506 1506 1505 1505
1507 1507 1507 1507 1507 1507 1507 1507 1506 1506 1506 1506 1505 1505 1505 1505 1505 1505 1505 1505 1506 1507 1507 1507 1507 1507 1507 1507 1508 1508 1507 1507 1507 1508 1507 1507 1506 1505 1505 1504 1503 1503 1502
1504 1504 1504 1504 1504 1504 1503 1503 1504 1503 1503 1503 1503 1503 1503 1503 1502 1502 1502 1502 1503 1503 1504 1505 1504 1504 1504 1505 1505 1505 1505 1505 1505 1505 1505 1504 1504 1503 1503 1502 1502 1501 1500
1501 1501 1501 1501 1501 1501 1501 1501 1501 1500 1500 1500 1500 1500 1500 1499 1500 1500 1499 1499 1499 1500 1501 1501 1502 1502 1502 1502 1503 1503 1503 1503 1503 1503 1503 1502 1501 1501 1500 1500 1500 1499 1497
1498 1498 1498 1498 1498 1498 1498 1498 1498 1497 1497 1497 1497 1498 1497 1497 1497 1497 1496 1496 1496 1496 1497 1498 1498 1499 1499 1500 1500 1500 1500 1500 1500 1500 1501 1500 1499 1498 1497 1497 1497 1496 1495
1495 1495 1495 1495 1495 1495 1495 1495 1495 1494 1494 1494 1494 1495 1495 1495 1494 1494 1493 1493 1492 1493 1493 1494 1495 1495 1496 1496 1497 1497 1497 1497 1497 1497 1498 1498 1497 1496 1495 1495 1495 1494 1493